User: anonymous   Login
Location: Kuppenheim
(48.8299°N, 8.2568°E)
Time: 02:55:47
(UTC+00:00)
Language:

CZ-4 R/B - Orbit

View from above orbital plane
View from above orbital plane
View from above satellite
View from above satellite

Ground track
Ground track

The orbit data is extracted from the following two-line orbital elements,

1 28059U 03049C   21270.54125048  .00000072  00000-0  28974-4 0  9994
2 28059  98.4948 198.5890 0050572 149.5711 210.8436 14.52670099950624
Epoch (UTC): 27 September 2021 12:59:24
Eccentricity: 0.0050572
inclination: 98.4948°
perigee height: 681 km
apogee height: 753 km
right ascension of ascending node: 198.5890°
argument of perigee: 149.5711°
revolutions per day: 14.52670099
mean anomaly at epoch: 210.8436°
orbit number at epoch: 95062

The dashed part of the orbit path shows where the satellite is in the earth's shadow,  

DLR